330P/Catalina (2016)

Japanese version
Home page
Updated on March 25, 2017

---------------------------------------------------------------------

* Profile

Designation 330P/2015 U1
Recovery Date October 22, 2015
Magnitude 19.7 mag
Recoverer Krisztian Sarneczky (Konkoly Observatory)

* Pictures

* Orbital Elements

Epoch 2016 Sept. 9.0 TT = JDT 2457640.5
T 2016 Aug. 29.97159 TT                                 MPCW
q   2.9530307            (2000.0)            P               Q
n   0.05850545     Peri.  186.94589     -0.51579170     -0.82110993
a   6.5716108      Node   294.37505     +0.79836346     -0.35719916
e   0.5506382      Incl.   15.56494     +0.31076470     -0.44518226
P  16.85
From 250 observations 1999 Nov. 5-2017 Mar. 5, mean residual 0".7.

* Magnitudes Graph

        m1 = 11.0 + 5 log d + 10 log r

---------------------------------------------------------------------

The orbital elements are published on M.P.E.C. 2017-E59.
The magnitudes graphs are made with Comet for Windows.

---------------------------------------------------------------------

Copyright(C) Seiichi Yoshida (comet@aerith.net). All rights reserved.